Weather History for Milwaukee, WI

Change the Weather History Date:

Wednesday, October 9, 2013

  Actual Average Record
Temperature  
Mean Temperature 59 °F 54 °F  
Max Temperature 69 °F 62 °F 82 °F (1949)
Min Temperature 49 °F 45 °F 28 °F (1876)
Degree Days  
Heating Degree Days 6 12  
Month to date heating degree days 33 93  
Since 1 July heating degree days 163 245  
Cooling Degree Days 0 0  
Month to date cooling degree days 10 3  
Year to date cooling degree days 688 637  
Growing Degree Days 8 (Base 50)    
Moisture  
Dew Point 47 °F    
Average Humidity 65    
Maximum Humidity 89    
Minimum Humidity 40    
Precipitation  
Precipitation 0.00 in 0.09 in 1.77 in (1958)
Month to date precipitation 2.10 0.80  
Year to date precipitation 33.77 28.16  
Snow  
Snow 0.00 in 0.00 in T in (1993)
Month to date snowfall 0.0 0.0  
Since 1 July snowfall 0.0 0.0  
Since 1 September snowfall 0.0 0.0  
Snow Depth 0.00 in    
Sea Level Pressure  
Sea Level Pressure 30.20 in    
Wind  
Wind Speed 6 mph (SSE)    
Max Wind Speed 17 mph    
Max Gust Speed 20 mph    
Visibility 10 miles    
Events      
T = Trace of Precipitation, MM = Missing Value Source: NWS Daily Summary

Daily Weather History Graph

Daily Weather History Graph

Search for Another Location

Airport:

Trip Planner

Search our weather history database for the weather conditions in past years. The results will help you decide how hot, cold, wet, or windy it might be!

Date:

Astronomy

Oct. 09, 2013 Rise Set
Actual Time 6:58 AM CDT 6:18 PM CDT
Civil Twilight 6:29 AM CDT 6:46 PM CDT
Nautical Twilight 5:57 AM CDT 7:19 PM CDT
Astronomical Twilight 5:24 AM CDT 7:52 PM CDT
Moon 11:59 AM CDT (10/9) 9:46 PM CDT (10/9)
Length of Visible Light 12h 16m
Length of Day
11h 20m
Waxing Crescent, 25% of the Moon is Illuminated
Oct 9
Waxing Crescent
Oct 11
First Quarter
Oct 18
Full
Oct 26
Last Quarter
Nov 3
New

Hourly Weather History & Observations

Time (CDT) Temp. Dew Point Humidity Pressure Visibility Wind Dir Wind Speed Gust Speed Precip Events Conditions
12:52 AM 60.1 °F 48.9 °F 67% 30.16 in 10.0 mi South 5.8 mph - N/A   Partly Cloudy
1:52 AM 57.9 °F 48.0 °F 70% 30.17 in 10.0 mi South 4.6 mph - N/A   Clear
2:52 AM 57.0 °F 48.0 °F 72% 30.17 in 10.0 mi South 5.8 mph - N/A   Clear
3:52 AM 55.0 °F 48.0 °F 77% 30.19 in 10.0 mi SSW 5.8 mph - N/A   Clear
4:52 AM 52.0 °F 46.9 °F 83% 30.21 in 10.0 mi SSE 5.8 mph - N/A   Clear
5:52 AM 53.1 °F 46.9 °F 80% 30.22 in 10.0 mi SSW 4.6 mph - N/A   Partly Cloudy
6:52 AM 51.1 °F 46.0 °F 83% 30.24 in 10.0 mi Calm Calm - N/A   Partly Cloudy
7:52 AM 53.1 °F 48.0 °F 83% 30.25 in 9.0 mi SSW 4.6 mph - N/A   Partly Cloudy
8:52 AM 59.0 °F 48.0 °F 67% 30.25 in 10.0 mi SSW 6.9 mph - N/A   Partly Cloudy
9:52 AM 63.0 °F 48.0 °F 58% 30.25 in 10.0 mi SSW 6.9 mph - N/A   Partly Cloudy
10:52 AM 66.0 °F 46.9 °F 50% 30.24 in 10.0 mi South 5.8 mph - N/A   Partly Cloudy
11:52 AM 69.1 °F 45.0 °F 42% 30.23 in 10.0 mi South 6.9 mph - N/A   Partly Cloudy
12:52 PM 66.9 °F 48.9 °F 52% 30.21 in 10.0 mi SE 11.5 mph - N/A   Partly Cloudy
1:52 PM 66.9 °F 46.9 °F 49% 30.21 in 10.0 mi SE 13.8 mph - N/A   Partly Cloudy
2:52 PM 66.9 °F 46.0 °F 47% 30.19 in 10.0 mi ESE 11.5 mph - N/A   Partly Cloudy
3:52 PM 64.9 °F 46.0 °F 50% 30.19 in 10.0 mi SE 12.7 mph - N/A   Partly Cloudy
4:52 PM 63.0 °F 48.9 °F 60% 30.18 in 10.0 mi SE 15.0 mph - N/A   Partly Cloudy
5:52 PM 61.0 °F 48.0 °F 62% 30.17 in 10.0 mi SSE 9.2 mph - N/A   Scattered Clouds
6:52 PM 57.0 °F 46.9 °F 69% 30.18 in 10.0 mi SE 4.6 mph - N/A   Partly Cloudy
7:52 PM 55.9 °F 48.0 °F 75% 30.18 in 10.0 mi Calm Calm - N/A   Partly Cloudy
8:52 PM 54.0 °F 48.0 °F 80% 30.19 in 10.0 mi Calm Calm - N/A   Clear
9:52 PM 52.0 °F 46.9 °F 83% 30.19 in 10.0 mi SSE 4.6 mph - N/A   Clear
10:52 PM 51.1 °F 46.9 °F 86% 30.18 in 10.0 mi SSE 3.5 mph - N/A   Clear
11:52 PM 51.1 °F 48.0 °F 89% 30.17 in 10.0 mi Calm Calm - N/A   Clear